Regional Weather Roundup
Issued by NWS Charleston, SC

Current Version | Previous Version | Text Only | Print | Product List | Glossary Off
Versions: 1 2 3 4 5 6 7 8 9 10 11 12 13 14 15 16 17 18 19 20 21 22 23 24 25 26 27 28 29 30 31 32 33 34 35 36 37 38 39 40 41 42 43 44 45 46 47 48 49 50

000
ASUS42 KCHS 292112
RWRCHS

REGIONAL WEATHER ROUNDUP
NATIONAL WEATHER SERVICE CHARLESTON SC
500 PM EDT FRI MAY 29 2015

NOTE: "FAIR" INDICATES FEW OR NO CLOUDS BELOW 12,000 FEET WITH NO
SIGNIFICANT WEATHER AND/OR OBSTRUCTIONS TO VISIBILITY.

NOT ALL STATIONS ARE QUALITY CONTROLLED BY THE NATIONAL
WEATHER SERVICE. USE DATA WITH CAUTION...ESPECIALLY
DEWPOINT OBSERVATIONS.

SCZ027-030-031-034>040-042>050-292200-
...SOUTHEAST SOUTH CAROLINA...

CITY           SKY/WX    TMP DP  RH WIND       PRES   REMARKS
N CHARLESTON   LGT RAIN  75  67  76 E12       30.19F
WATERFRONT PAR   N/A     77  69  76 E7        30.16F
MOUNT PLEASANT FAIR      75  72  88 CALM      30.18F
JOHNS ISLAND   PTCLDY    81  70  69 E10       30.18F
PINOPOLIS        N/A     82  66  57 S5        30.12F
MONCKS CORNER  FAIR      79  66  65 S5        30.18F
SUMMERVILLE    CLOUDY    81  66  61 E6        30.19F
BEAUFORT MCAS  MOSUNNY   84  66  54 E15       30.16F
BEAUFORT ARPT  FAIR      82  68  61 E8        30.16F
HILTON HEAD IS MOSUNNY   81  72  74 NE8       30.18F
WALTERBORO     MOCLDY    82  66  57 E14       30.17S
ALLENDALE      FAIR      86  61  42 SE5       30.14F

...SOUTHERN MIDLANDS AND PEE DEE...

CITY           SKY/WX    TMP DP  RH WIND       PRES   REMARKS
GEORGETOWN     NOT AVBL
KINGSTREE      NOT AVBL
ORANGEBURG     PTSUNNY   83  65  54 SE10G18   30.16F
BARNWELL       FAIR      88  61  40 E8        30.16F
AIKEN          FAIR      86  50  28 SE7       30.19F
MANNING        FAIR      81   9   6 SE8       30.18F
COLUMBIA       MOSUNNY   88  56  33 SE9       30.15F
SUMTER         MOSUNNY   86  60  40 VRB3      30.14F
FLORENCE       SUNNY     88  55  32 SE8       30.16F
MYRTLE BEACH   MOSUNNY   81  68  65 SE14      30.20F
N MYRTLE BEACH SUNNY     81  69  67 SE9       30.19F

$$

GAZ063-065-086>088-099>101-113>116-118-119-134>141-150-292200-
...SOUTHEAST GEORGIA...

CITY           SKY/WX    TMP DP  RH WIND       PRES   REMARKS
SAVANNAH ARPT  MOSUNNY   84  65  52 E17G24    30.15F
HUNTER AAF     MOSUNNY   83  69  62 E15G21    30.13F
FORT STEWART   MOSUNNY   84  66  54 E13       30.13F
STATESBORO     MOSUNNY   87  67  50 SE9       30.14F HX  90
SYLVANIA       PTCLDY    90  62  39 SE5       30.15F HX  90
CLAXTON        FAIR      84  64  51 SE6       30.13F

...CSRA...CENTRAL AND FAR SOUTHEAST GEORGIA...

CITY           SKY/WX    TMP DP  RH WIND       PRES   REMARKS
THOMSON        SUNNY     88  61  39 SE8G16    30.19F
AUGUSTA-BUSH   SUNNY     87  59  38 SE9       30.14F
AUGUSTA-DANIEL SUNNY     87  58  37 SE10      30.16F
SWAINSBORO     FAIR      88  59  37 SE7       30.14F
VIDALIA        MOSUNNY   88  59  37 SE6       30.13F
EASTMAN        MOCLDY    87  59  38 E3        30.15F
HAZLEHURST     FAIR      86  60  40 CALM      30.11F
ALMA           PTSUNNY   84  60  44 E8        30.11F
WAYCROSS       MOSUNNY   87  62  42 SE8       30.11F
JESUP          FAIR      88  70  55 E15       30.13S HX  92
BAXLEY         FAIR      88  63  42 S9        30.11F
BRUNSWICK        N/A     81  68  65 NE16G23   30.16S
SAINT SIMONS   NOT AVBL

$$

SCZ027-028-034-036>038-045-046-048>050-GAZ119-141-292200-
...LAKE AND SUPPLEMENTAL COASTAL OBSERVATIONS...

STATION/POSITION TIME  TEMP    WIND        PRES    WAVE   SWELL
                       AIR SEA DIR/SP/G            HT/PER HT/PER/DIR
                 (UTC) (F)     (DEG/KT/KT) (MB)    (FT/S) (FT/S/D)
UPR LAKE MARION  NOT AVBL
WINYAH BAY       NOT AVBL
LAKE MURRAY      2000   84     160/  8/ 12 1021.0F
ACE BASIN NERRS  NOT AVBL
FORT PULASKI     2000                      1022.4F
SAPELO ISLAND    2000   79      70/ 12     1022.0S

$$

ANZ835-935-AMZ111-154-330-350-352-354-370-450-454-472-292200-
...C-MAN AND BUOY OBSERVATIONS...

STATION/POSITION TIME  TEMP    WIND        PRES    WAVE   SWELL
                       AIR SEA DIR/SP/G            HT/PER HT/PER/DIR
                 (UTC) (F)     (DEG/KT/KT) (MB)    (FT/S) (FT/S/D)
BUOY 41004       2050   78 79   80/ 10/ 12 1021.3F   4/ 9   3/ 9
BUOY 41008       2050   74 78   40/ 14/ 16 1020.9F   4/10   3/110/10
FOLLY BEACH CMAN 2100   76      40/ 11/ 13 1022.2F
CAPERS NEARSHORE 2008   75      40/  8/ 10 1022.6F
FRIPP NEARSHORE  NOT AVBL


STATION/POSITION TIME  TEMP    WIND        PRES    WAVE   SWELL
                       AIR SEA DIR/SP/G            HT/PER HT/PER/DIR
                 (UTC) (F)     (DEG/KT/KT) (MB)    (FT/S) (FT/S/D)
5E ST. MARYS GA  2021      80                N/A     4/ 9   2/100/11
FRYING PAN BUOY  2050   77 76   60/ 12/ 14 1022.9F   4/ 8   3/110/ 8
BUOY 41025       2050   77 81  110/  6/  8 1023.6F   3/ 8   3/ 80/ 8
CAPE LOOKOUT NC  2100   76     100/  6/  6 1023.0F
BUOY 41002       2050   75 75   90/ 14/ 17 1021.4F   6/ 8   3/ 70/ 8
BUOY 41010       2020   77 81   40/ 14/ 16 1018.9F
ST AUGUSTINE FL  2100   77 81   50/ 12/ 13 1020.8F


$$


USA.gov is the U.S. government's official web portal to all federal, state and local government web resources and services.